軌道要素
Epoch 2017 May 7.0 TT = JDT 2457880.5
T 2017 May 20.44837 TT Rudenko
q 6.9353604 (2000.0) P Q
z -0.0000509 Peri. 30.76245 +0.76567315 +0.05755684
+/-0.0000010 Node 51.06045 +0.27838269 -0.92753075
e 1.0003533 Incl. 124.54726 +0.57986869 +0.36928840
From 212 observations 2015 Oct. 9-2019 Sept. 26, mean residual 0".6.
|